Погода в Адду

Мальдивы     0°36′17″N   73°05′19″E
темп.,
°C
ветер,
м/с
пор.,
м/с
влажн.,
%
обл.,
%
осадки,
мм/ч
давл.,
гПа
погр.,
м
10 августа, ср
ср1023:00+28вюв2275100 0.0 1009526
02:00+27в227699 0.1 1007483
05:00+27всв337624 0.1 1007565
08:00+28всв33745 0.0 1009663
11:00+28всв337244 0.0 1009686
14:00+28св32705 0.0 1007723
17:00+28всв22685 0.0 1007763
20:00+28всв226975 0.0 1009763
11 августа, чт
чт1123:00+28в33706 0.0 1010774
02:00+28в327198 0.0 1008773
05:00+28всв337279 0.0 1008745
08:00+28в447290 0.0 1010774
11:00+28в44725 0.0 1009746
14:00+28в44723 0.0 1008831
17:00+28в447220 0.0 1009894
20:00+28вюв44735 0.1 1010722
12 августа, пт
пт1223:00+28в55755 0.1 1011797
02:00+28в557764 1.0 1009720
05:00+28в567670 1.4 1009833
08:00+28вюв567719 0.9 1011758
11:00+28вюв5576100 1.1 1010773
14:00+28вюв557623 0.1 1008817
17:00+28вюв55768 0.2 1008821
20:00+28вюв567720 1.5 1010750
13 августа, сб
сб1323:00+28вюв67795 5.0 1011653
02:00+27вюв568055 3.5 1009520
05:00+27вюв66765 6.2 1009601
08:00+27вюв567796 0.9 1011645
11:00+28вюв567696 1.9 1011754
14:00+28вюв567637 1.2 1008829
17:00+28вюв5675100 1.3 1008886
20:00+28вюв5678100 0.9 1010640
14 августа, вс
вс1423:00+28вюв5678100 3.3 1010612
02:00+28вюв557639 0.3 1008802
05:00+28вюв557610 0.7 1009793
08:00+28вюв567677 1.4 1011764
11:00+28вюв5577100 2.1 1011735
14:00+28вюв4574100 0.4 1009813
17:00+28в557595 1.0 1009728
20:00+28в447598 0.9 1010772